Flag for Switzerland Weather past 2 weeks in Thônex, Geneva, Switzerland

Now
41 °F

Passing clouds.


Feels Like: 41 °F
Forecast: 34 / 53 °F
Wind: 2 mph from North

Location: Geneva Cointrin Airport

Current Time: Oct 23, 2014 at 1:08:19 AM

Latest Report: Oct 23, 2014 at 12:20 AM


Visibility: N/A

Pressure: 30.33 "Hg

Humidity: 100%

Dew point: 41 °F

Location of ThônexLocation

Historic Weather in Thônex — Graph

°F

Thônex temperature yesterday

Maximum temperature yesterday: 52 °F (at 12:20 AM)
Minimum temperature yesterday: 41 °F (at 10:50 PM)
Average temperature yesterday: 46 °F

Past Weeks' High & Low Weather Summary

 TemperatureHumidityPressure
High77 °F (Oct 9, 1:50 PM)100% (Oct 7, 11:20 PM)30.36 "Hg (Oct 7, 11:20 PM)
Low41 °F (Oct 22, 10:50 PM)39% (Oct 9, 1:50 PM)29.80 "Hg (Oct 8, 6:50 PM)
Average59 °F86%30.00 "Hg
* Reported Oct 7 11:20 PM — Oct 22 11:50 PM, Thônex, Weather by CustomWeather, © 2014

Note: Actual official high and low records may vary slightly from our data, if they occured in-between our weather recording intervals... More about our weather records

Advertising

Thônex weather history for previous 24 hours

 ConditionsComfort  
Time TempWeatherWind HumidityBarometerVisibility
11:50 PM
Oct 22
43 °FPassing clouds.2 mph93%30.33 "HgN/A
11:20 PM43 °FPassing clouds.3 mph93%30.36 "HgN/A
10:50 PM41 °FPassing clouds.3 mph100%30.36 "HgN/A
10:20 PM43 °FPartly cloudy.3 mph87%30.33 "HgN/A
9:50 PM43 °FScattered showers. Partly cloudy.3 mph93%30.33 "HgN/A
9:20 PM43 °FSprinkles. Passing clouds.1 mph87%30.33 "HgN/A
8:50 PM43 °FSprinkles. Partly cloudy.5 mph87%30.33 "HgN/A
8:20 PM43 °FSprinkles. Partly cloudy.1 mph87%30.33 "HgN/A
7:50 PM45 °FPassing clouds.6 mph81%30.33 "HgN/A
7:20 PM43 °FPartly sunny.6 mph87%30.33 "HgN/A
6:50 PM43 °FScattered clouds.5 mph87%30.30 "HgN/A
6:20 PM45 °FScattered showers. Broken clouds.8 mph81%30.30 "HgN/A
5:50 PM46 °FSprinkles. Broken clouds.5 mph76%30.30 "Hg6 mi
5:20 PM45 °FScattered showers. Broken clouds.6 mph71%30.30 "HgN/A
4:20 PM48 °FScattered showers. Partly sunny.6 mph58%30.30 "HgN/A
3:50 PM48 °FScattered showers. Broken clouds.5 mph54%30.30 "HgN/A
3:20 PM48 °FScattered clouds.6 mph62%30.30 "HgN/A
2:50 PM46 °FScattered showers. Partly sunny.7 mph66%30.30 "HgN/A
2:20 PM48 °FScattered showers. Scattered clouds.6 mph62%30.30 "HgN/A
1:50 PM45 °FScattered showers. Scattered clouds.3 mph71%30.30 "HgN/A
1:20 PM43 °FSprinkles. Scattered clouds.7 mph81%30.30 "HgN/A
12:50 PM46 °FSprinkles. Scattered clouds.7 mph66%30.30 "HgN/A
12:20 PM48 °FScattered showers. Partly sunny.8 mph62%30.30 "HgN/A
11:50 AM48 °FScattered showers. Scattered clouds.8 mph50%30.30 "HgN/A
11:20 AM48 °FScattered showers. Scattered clouds.6 mph62%30.30 "HgN/A
10:50 AM48 °FScattered showers. Partly sunny.3 mph58%30.27 "HgN/A
10:20 AM46 °FScattered showers. Broken clouds.1 mph62%30.27 "HgN/A
9:50 AM45 °FBroken clouds.5 mph76%30.27 "HgN/A
9:20 AM45 °FSprinkles. Broken clouds.5 mph76%30.27 "HgN/A
8:50 AM45 °FScattered showers. Partly cloudy.1 mph81%30.24 "HgN/A
8:20 AM45 °FSprinkles. Partly cloudy.3 mph81%30.24 "HgN/A
7:50 AM45 °FScattered showers. Partly cloudy.2 mph87%30.21 "HgN/A
7:20 AM45 °FSprinkles. Partly cloudy.3 mph76%30.21 "HgN/A
6:50 AM45 °FScattered showers. Passing clouds.1 mph76%30.21 "HgN/A
6:20 AM45 °FScattered showers. Passing clouds.6 mph76%30.21 "HgN/A
5:50 AM46 °FSprinkles. Passing clouds.5 mph76%30.18 "HgN/A
5:20 AM46 °FSprinkles. Passing clouds.5 mph71%30.21 "HgN/A
4:50 AM46 °FSprinkles. Passing clouds.5 mph82%30.18 "HgN/A
4:20 AM46 °FSprinkles. Passing clouds.3 mph71%30.18 "HgN/A
3:50 AM46 °FSprinkles. Passing clouds.6 mph71%30.18 "HgN/A
2:50 AM46 °FSprinkles. Passing clouds.7 mph87%30.21 "HgN/A
2:20 AM45 °FSprinkles. Passing clouds.2 mph87%30.21 "HgN/A
1:50 AM46 °FSprinkles. Passing clouds.6 mph76%30.21 "HgN/A
1:20 AM50 °FPassing clouds.6 mph62%30.18 "HgN/A
Weather by CustomWeather, © 2014

See weather overviewHow to use our weather pages